User: anonymous   Login
Location: Caltech
(34.1382°N, 118.1253°W)
Time: 21:49:01
(UTC-07:00)
Language:

SEDSat Delta rocket - Orbit

View from above orbital plane
View from above orbital plane
View from above satellite
View from above satellite

Ground track
Ground track

The orbit data is extracted from the following two-line orbital elements,

1 25510U 98061C   15181.75906704  .00000652  00000-0  10270-3 0  9997
2 25510 031.4360 293.6845 0330019 201.0193 289.3195 14.36645195874045
Epoch (UTC): 30 June 2015 18:13:03
Eccentricity: 0.0330019
inclination: 31.4360°
perigee height: 534 km
apogee height: 1005 km
right ascension of ascending node: 293.6845°
argument of perigee: 201.0193°
revolutions per day: 14.36645195
mean anomaly at epoch: 289.3195°
orbit number at epoch: 87404

The dashed part of the orbit path shows where the satellite is in the earth's shadow,  

DLR